This is the latest recevied weather packets stored in our database for station/object KG7MRB. If no packets are shown the sender has not sent any weather packets the latest 10 day(s).
| Time | Temp. | Humidity | Pressure | Rain* | Wind** | Luminosity | Snow |
|---|---|---|---|---|---|---|---|
| 1778103057 | 11.67° C | 97% | 1038.5 hPa | 0 mm | - | 46 W/m² | - |
| 1778102754 | 11.67° C | 97% | 1038.5 hPa | 0 mm | - | 45 W/m² | - |
| 1778102449 | 11.67° C | 97% | 1038.2 hPa | 0 mm | - | 48 W/m² | - |
| 1778102145 | 11.11° C | 97% | 1038.3 hPa | 0 mm | - | 48 W/m² | - |
| 1778101842 | 11.67° C | 97% | 1038.3 hPa | 0 mm | - | 45 W/m² | - |
| 1778101539 | 11.67° C | 97% | 1038.3 hPa | 0 mm | - | 46 W/m² | - |
| 1778101236 | 11.67° C | 96% | 1038.4 hPa | 0 mm | - | 54 W/m² | - |
| 1778100932 | 11.67° C | 97% | 1038.3 hPa | 0 mm | - | 51 W/m² | - |
| 1778100627 | 11.67° C | 97% | 1038.3 hPa | 0 mm | - | 54 W/m² | - |
| 1778100326 | 11.67° C | 97% | 1038.4 hPa | 0 mm | - | 44 W/m² | - |
| 1778100022 | 11.67° C | 97% | 1038.3 hPa | 0 mm | - | 47 W/m² | - |
| 1778099721 | 11.67° C | 97% | 1038.3 hPa | 0 mm | - | 51 W/m² | - |
| 1778099417 | 11.67° C | 97% | 1038.3 hPa | 0 mm | - | 54 W/m² | - |
| 1778099114 | 11.11° C | 97% | 1038.4 hPa | 0 mm | - | 46 W/m² | - |
| 1778098810 | 11.67° C | 97% | 1038.3 hPa | 0 mm | - | 42 W/m² | - |
| 1778098509 | 11.67° C | 97% | 1038.3 hPa | 0 mm | - | 44 W/m² | - |
| 1778098205 | 11.67° C | 96% | 1038.3 hPa | 0 mm | - | 44 W/m² | - |
| 1778097901 | 11.67° C | 96% | 1038.2 hPa | 0 mm | - | 43 W/m² | - |
| 1778097597 | 11.11° C | 96% | 1038.2 hPa | 0 mm | - | 41 W/m² | - |
| 1778097294 | 11.11° C | 96% | 1038.2 hPa | 0 mm | - | 46 W/m² | - |
| 1778096985 | 11.11° C | 96% | 1038.3 hPa | 0 mm | - | 52 W/m² | - |
| 1778096683 | 11.11° C | 97% | 1038.3 hPa | 0 mm | - | 46 W/m² | - |
| 1778096379 | 11.11° C | 96% | 1038.1 hPa | 0 mm | - | 47 W/m² | - |
| 1778096076 | 11.11° C | 96% | 1038.2 hPa | 0 mm | - | 51 W/m² | - |
| 1778095773 | 11.11° C | 96% | 1038.2 hPa | 0 mm | - | 51 W/m² | - |
* Rain latest hour (hover to see other rain measurements)
** Current wind speed in m/s (hover to see current wind gust speed)